Regional Weather Roundup
Issued by NWS

Home | Current Version | Previous Version | Graphics & Text | Print | Product List | Glossary On
Versions: 1 2 3 4 5 6 7 8 9 10 11 12 13 14 15 16 17 18 19 20 21 22 23 24 25 26 27 28 29 30 31 32 33 34 35 36 37 38 39 40 41 42 43 44 45 46 47 48 49 50
048
ASUS43 KTOP 230308
RWRKS

WEATHER ROUNDUP FOR KANSAS
NATIONAL WEATHER SERVICE GOODLAND KS
1000 PM CDT TUE MAY 22 2018

NOTE:  "FAIR" INDICATES FEW OR NO CLOUDS BELOW 12,000 FEET WITH NO
SIGNIFICANT WEATHER AND/OR OBSTRUCTIONS TO VISIBILITY.

KSZ001>006-013>018-027>032-041>047-230400-
NORTHWEST KANSAS

CITY           SKY/WX    TMP DP  RH WIND       PRES   REMARKS
GOODLAND       CLOUDY    67  52  58 S10       29.92R
HAYS           CLOUDY    79  63  57 SE18      29.95R
HILL CITY      PTCLDY    75  57  53 SE10      29.93R
RUSSELL        PTCLDY    78  65  63 SE16      29.95R
$$

KSZ061>065-074>080-084>089-230400-
SOUTHWEST KANSAS

CITY           SKY/WX    TMP DP  RH WIND       PRES   REMARKS
DODGE CITY     CLEAR     74  54  49 SE13      29.97R
ELKHART        PTCLDY    77  57  50 SE13      29.96R
GARDEN CITY    CLEAR     71  53  52 SE13      29.95R
GREAT BEND     MOCLDY    77  63  61 SE17G23   29.96R
LIBERAL        CLEAR     75  57  53 SE12G23   29.97R
PRATT          CLOUDY    75  60  58 SE8       29.98R
$$

KSZ066>073-081>083-090>101-230400-
SOUTHEAST KANSAS

CITY           SKY/WX    TMP DP  RH WIND       PRES   REMARKS
CHANUTE        CLEAR     73  68  84 SE6       30.00R
COFFEYVILLE    CLEAR     75  68  78 SE6       29.98R
HUTCHINSON     CLOUDY    76  64  66 SE9       29.96R
MEDICINE LODGE   N/A     77  61  57 SE8       29.96R
NEWTON         CLEAR     72  64  76 SE9       30.00
PARSONS        CLEAR     73  67  81 CALM      30.01R
WICHITA INTL   PTCLDY    76  66  71 SE10      29.97R
WICHITA JABRA  CLEAR     75  66  73 SE8       29.98R
WICHITA MCCONL CLEAR     76  65  67 S8        29.98R
WINFIELD       CLEAR     75  69  81 SE7       30.00R
$$

KSZ007>012-019>026-033>040-048>060-102>105-230400-
NORTHEAST KANSAS

CITY           SKY/WX    TMP DP  RH WIND       PRES   REMARKS
CONCORDIA      CLEAR     76  63  64 S12       29.95R
EMPORIA        CLEAR     71  66  84 SE5       29.99R
LAWRENCE       CLOUDY    72  66  81 SE6       30.00R
MANHATTAN      CLOUDY    75  65  70 CALM      29.97R
MARYSVILLE     PTCLDY    77  64  65 S10       29.98R
OLATHE IND     CLOUDY    75  65  70 SE6       30.02R
OLATHE EXE     PTCLDY    73  65  75 SE6       30.02R
SALINA         CLEAR     77  64  64 S9        29.96R
TOPEKA BILLARD CLEAR     73  67  81 E6        29.99R
TOPEKA FORBES  CLOUDY    73  68  84 SE3       30.00R
$$




USA.gov is the U.S. government's official web portal to all federal, state and local government web resources and services.